Time,TemperatureF,DewpointF,PressureIn,WindDirection,WindDirectionDegrees,WindSpeedMPH,WindSpeedGustMPH,Humidity,HourlyPrecipIn,Conditions,Clouds,dailyrainin,SolarRadiationWatts/m^2,SoftwareType,DateUTC
2016-02-11 00:28:00,24.9,15.0,29.68,SW,214,2.0,9.0,67,0.00,,,0.00,0,weatherlink.com 1.10,2016-02-11 05:28:00,
2016-02-11 00:58:00,24.6,14.0,29.67,WNW,284,0.0,10.0,65,0.00,,,0.00,0,weatherlink.com 1.10,2016-02-11 05:58:00,
2016-02-11 01:13:00,24.4,14.0,29.68,West,277,2.0,14.0,64,0.00,,,0.00,0,weatherlink.com 1.10,2016-02-11 06:13:00,
2016-02-11 01:28:00,24.2,14.0,29.68,WNW,296,4.0,11.0,64,0.00,,,0.00,0,weatherlink.com 1.10,2016-02-11 06:28:00,
2016-02-11 01:58:00,23.7,13.0,29.69,WSW,251,2.0,5.0,65,0.00,,,0.00,0,weatherlink.com 1.10,2016-02-11 06:58:00,
2016-02-11 02:13:00,23.4,14.0,29.69,WNW,282,2.0,5.0,66,0.00,,,0.00,0,weatherlink.com 1.10,2016-02-11 07:13:00,
2016-02-11 02:28:00,23.2,13.0,29.69,NW,309,3.0,12.0,66,0.00,,,0.00,0,weatherlink.com 1.10,2016-02-11 07:28:00,
2016-02-11 02:43:00,22.9,14.0,29.69,WNW,293,1.0,10.0,68,0.00,,,0.00,0,weatherlink.com 1.10,2016-02-11 07:43:00,
2016-02-11 03:13:00,22.5,14.0,29.69,WSW,252,1.0,10.0,70,0.00,,,0.00,0,weatherlink.com 1.10,2016-02-11 08:13:00,
2016-02-11 03:28:00,22.3,14.0,29.69,WSW,238,0.0,8.0,70,0.00,,,0.00,0,weatherlink.com 1.10,2016-02-11 08:28:00,
2016-02-11 03:44:00,22.1,14.0,29.70,West,281,0.0,5.0,72,0.00,,,0.00,0,weatherlink.com 1.10,2016-02-11 08:44:00,
2016-02-11 03:58:00,22.0,14.0,29.70,WSW,244,5.0,7.0,72,0.00,,,0.00,0,weatherlink.com 1.10,2016-02-11 08:58:00,
2016-02-11 04:13:00,21.6,14.0,29.70,North,5,5.0,8.0,72,0.00,,,0.00,0,weatherlink.com 1.10,2016-02-11 09:13:00,
2016-02-11 04:28:00,21.1,14.0,29.71,West,260,2.0,10.0,74,0.00,,,0.00,0,weatherlink.com 1.10,2016-02-11 09:28:00,
2016-02-11 04:43:00,20.6,14.0,29.71,South,170,0.0,5.0,76,0.00,,,0.00,0,weatherlink.com 1.10,2016-02-11 09:43:00,
2016-02-11 04:58:00,20.3,14.0,29.71,SW,222,0.0,9.0,77,0.00,,,0.00,0,weatherlink.com 1.10,2016-02-11 09:58:00,
2016-02-11 05:14:00,19.9,14.0,29.71,WNW,298,2.0,11.0,78,0.00,,,0.00,0,weatherlink.com 1.10,2016-02-11 10:14:00,
2016-02-11 05:29:00,19.7,14.0,29.72,West,281,3.0,7.0,79,0.00,,,0.00,0,weatherlink.com 1.10,2016-02-11 10:29:00,
2016-02-11 05:44:00,19.3,14.0,29.73,NW,316,2.0,8.0,78,0.00,,,0.00,0,weatherlink.com 1.10,2016-02-11 10:44:00,
2016-02-11 06:29:00,18.6,11.0,29.74,NNE,32,0.0,9.0,71,0.00,,,0.00,0,weatherlink.com 1.10,2016-02-11 11:29:00,
2016-02-11 06:44:00,18.4,10.0,29.75,NNW,344,5.0,9.0,71,0.00,,,0.00,0,weatherlink.com 1.10,2016-02-11 11:44:00,
2016-02-11 06:59:00,18.3,10.0,29.75,NW,311,3.0,6.0,71,0.00,,,0.00,0,weatherlink.com 1.10,2016-02-11 11:59:00,
2016-02-11 07:14:00,18.0,9.0,29.75,WNW,292,3.0,8.0,69,0.00,,,0.00,11,weatherlink.com 1.10,2016-02-11 12:14:00,
2016-02-11 07:29:00,17.9,8.0,29.76,West,260,3.0,12.0,66,0.00,,,0.00,23,weatherlink.com 1.10,2016-02-11 12:29:00,
2016-02-11 07:44:00,17.8,7.0,29.77,West,263,0.0,9.0,64,0.00,,,0.00,37,weatherlink.com 1.10,2016-02-11 12:44:00,
2016-02-11 07:59:00,17.9,7.0,29.77,WSW,251,0.0,7.0,62,0.00,,,0.00,39,weatherlink.com 1.10,2016-02-11 12:59:00,
2016-02-11 08:14:00,18.0,7.0,29.77,NNW,345,2.0,7.0,61,0.00,,,0.00,53,weatherlink.com 1.10,2016-02-11 13:14:00,
2016-02-11 08:29:00,18.0,7.0,29.77,WNW,285,3.0,7.0,61,0.00,,,0.00,58,weatherlink.com 1.10,2016-02-11 13:29:00,
2016-02-11 08:59:00,18.1,5.0,29.78,West,268,6.0,9.0,58,0.00,,,0.00,81,weatherlink.com 1.10,2016-02-11 13:59:00,
2016-02-11 09:14:00,18.0,5.0,29.79,SW,225,4.0,14.0,56,0.00,,,0.00,165,weatherlink.com 1.10,2016-02-11 14:14:00,
2016-02-11 09:29:00,18.3,4.0,29.79,NNW,343,0.0,15.0,54,0.00,,,0.00,86,weatherlink.com 1.10,2016-02-11 14:29:00,
2016-02-11 09:44:00,18.7,4.0,29.78,SSW,211,2.0,10.0,54,0.00,,,0.00,128,weatherlink.com 1.10,2016-02-11 14:44:00,
2016-02-11 09:59:00,19.2,5.0,29.78,NNW,347,3.0,13.0,55,0.00,,,0.00,149,weatherlink.com 1.10,2016-02-11 14:59:00,
2016-02-11 10:14:00,18.9,5.0,29.80,West,261,5.0,11.0,56,0.00,,,0.00,79,weatherlink.com 1.10,2016-02-11 15:14:00,
2016-02-11 10:29:00,18.9,6.0,29.80,WSW,258,7.0,8.0,58,0.00,,,0.00,125,weatherlink.com 1.10,2016-02-11 15:29:00,
2016-02-11 10:44:00,18.9,6.0,29.80,NW,317,7.0,15.0,58,0.00,,,0.00,109,weatherlink.com 1.10,2016-02-11 15:44:00,